^^
Datos históricos de la estación: Murcia-Puente Tocinos
Diario Informe para Marzo 10, 2019 Unidades:  Métrico    Inglés   Ambas
Diario Semanal Mensual Anual Configurable
  Máximo: Mínimo: Media:
Temperatura: 26.8 °C 8.7 °C 17.1 °C
Punto de rocio: 10.3 °C 2.9 °C 5.7 °C
Humedad: 72% 27% 50%
Velocidad viento: 14.8km/h 0.0km/h 6.2km/h
Racha viento: 25.7km/h - -
Viento- - SSW
Presión: 1030.1 hPa 1022.3 hPa -
Precipitación: 0.0 mm    
Historical Graphs
 
 
Tabla de datos para Marzo 10, 2019
Hora Temperatura Punto de rocio Presión Viento Velocidad viento Racha viento Humedad Intensidad lluvia(por hora) Nubes
00:04 12.9 °C 6.5 °C 1030.1 hPa SW 5.0 km/h 5.6 km/h 65% 0.0 mm CLR
00:09 12.9 °C 6.2 °C 1030.1 hPa SW 3.9 km/h 7.4 km/h 64% 0.0 mm CLR
00:14 12.9 °C 6.0 °C 1030.1 hPa SE 3.9 km/h 7.4 km/h 63% 0.0 mm CLR
00:19 12.8 °C 5.9 °C 1030.0 hPa SSW 5.0 km/h 7.4 km/h 63% 0.0 mm CLR
00:24 12.8 °C 5.7 °C 1030.0 hPa SW 5.0 km/h 7.4 km/h 62% 0.0 mm CLR
00:29 12.8 °C 5.7 °C 1030.0 hPa SW 5.0 km/h 5.6 km/h 62% 0.0 mm CLR
00:34 12.8 °C 5.4 °C 1029.8 hPa SW 5.0 km/h 5.6 km/h 61% 0.0 mm CLR
00:39 12.8 °C 5.4 °C 1029.8 hPa SW 4.7 km/h 7.4 km/h 61% 0.0 mm CLR
00:44 12.7 °C 5.1 °C 1029.8 hPa SW 4.7 km/h 11.1 km/h 60% 0.0 mm CLR
00:49 12.7 °C 4.9 °C 1029.7 hPa South 5.8 km/h 7.4 km/h 59% 0.0 mm CLR
00:54 12.6 °C 4.8 °C 1029.7 hPa SSW 5.8 km/h 11.1 km/h 59% 0.0 mm CLR
00:59 12.5 °C 4.9 °C 1029.7 hPa SSW 6.4 km/h 11.1 km/h 60% 0.0 mm CLR
01:04 12.3 °C 4.8 °C 1029.7 hPa South 6.4 km/h 11.1 km/h 60% 0.0 mm CLR
01:09 12.2 °C 4.9 °C 1029.7 hPa South 7.6 km/h 9.3 km/h 61% 0.0 mm CLR
01:14 12.1 °C 5.1 °C 1029.7 hPa South 7.6 km/h 9.3 km/h 62% 0.0 mm CLR
01:19 12.1 °C 5.3 °C 1029.6 hPa WSW 6.9 km/h 10.3 km/h 63% 0.0 mm CLR
01:24 12.1 °C 5.3 °C 1029.6 hPa SSW 6.9 km/h 7.4 km/h 63% 0.0 mm CLR
01:29 12.1 °C 5.3 °C 1029.6 hPa WSW 6.4 km/h 7.4 km/h 63% 0.0 mm CLR
01:34 12.1 °C 5.3 °C 1029.5 hPa SW 6.4 km/h 13.0 km/h 63% 0.0 mm CLR
01:39 12.1 °C 5.3 °C 1029.5 hPa WSW 6.4 km/h 7.4 km/h 63% 0.0 mm CLR
01:44 12.0 °C 5.4 °C 1029.5 hPa WSW 6.4 km/h 7.4 km/h 64% 0.0 mm CLR
01:49 11.9 °C 5.3 °C 1029.5 hPa SSW 5.0 km/h 11.1 km/h 64% 0.0 mm CLR
01:54 11.9 °C 5.3 °C 1029.5 hPa SW 5.0 km/h 11.1 km/h 64% 0.0 mm CLR
01:59 11.8 °C 5.4 °C 1029.5 hPa WSW 7.6 km/h 9.3 km/h 65% 0.0 mm CLR
02:04 11.8 °C 5.4 °C 1029.4 hPa SW 7.6 km/h 8.4 km/h 65% 0.0 mm CLR
02:09 11.7 °C 5.3 °C 1029.4 hPa SSW 6.4 km/h 7.4 km/h 65% 0.0 mm CLR
02:14 11.7 °C 5.3 °C 1029.4 hPa SW 6.4 km/h 7.4 km/h 65% 0.0 mm CLR
02:19 11.7 °C 5.3 °C 1029.2 hPa SW 5.0 km/h 3.9 km/h 65% 0.0 mm CLR
02:24 11.7 °C 5.3 °C 1029.2 hPa SW 5.0 km/h 5.6 km/h 65% 0.0 mm CLR
02:29 11.7 °C 5.3 °C 1029.2 hPa SW 3.2 km/h 5.6 km/h 65% 0.0 mm CLR
02:34 11.6 °C 5.2 °C 1029.1 hPa SW 3.2 km/h 7.4 km/h 65% 0.0 mm CLR
02:39 11.4 °C 5.1 °C 1029.1 hPa SW 3.9 km/h 5.6 km/h 65% 0.0 mm CLR
02:44 11.3 °C 4.7 °C 1029.1 hPa SSW 3.9 km/h 7.4 km/h 64% 0.0 mm CLR
02:49 11.3 °C 4.7 °C 1029.0 hPa SW 3.9 km/h 7.4 km/h 64% 0.0 mm CLR
02:54 11.3 °C 4.3 °C 1029.0 hPa SW 3.9 km/h 10.0 km/h 62% 0.0 mm CLR
02:59 11.3 °C 4.3 °C 1029.0 hPa SW 5.8 km/h 9.3 km/h 62% 0.0 mm CLR
03:04 11.3 °C 4.1 °C 1028.7 hPa WSW 5.8 km/h 11.1 km/h 61% 0.0 mm CLR
03:09 11.3 °C 4.3 °C 1028.7 hPa SW 6.9 km/h 14.8 km/h 62% 0.0 mm CLR
03:14 11.2 °C 4.2 °C 1028.7 hPa SW 6.9 km/h 9.3 km/h 62% 0.0 mm CLR
03:19 11.2 °C 4.2 °C 1028.5 hPa SSW 7.6 km/h 9.3 km/h 62% 0.0 mm CLR
03:24 11.2 °C 3.9 °C 1028.5 hPa SW 7.6 km/h 11.1 km/h 61% 0.0 mm CLR
03:29 11.1 °C 3.6 °C 1028.5 hPa SSW 8.4 km/h 11.1 km/h 60% 0.0 mm CLR
03:34 11.1 °C 3.6 °C 1028.5 hPa SSW 8.4 km/h 11.1 km/h 60% 0.0 mm CLR
03:39 10.9 °C 3.4 °C 1028.5 hPa SSW 7.6 km/h 9.3 km/h 60% 0.0 mm CLR
03:44 10.9 °C 3.4 °C 1028.5 hPa South 7.6 km/h 8.7 km/h 60% 0.0 mm CLR
03:49 10.8 °C 3.6 °C 1028.4 hPa SSW 6.9 km/h 10.0 km/h 61% 0.0 mm CLR
03:54 10.7 °C 3.5 °C 1028.4 hPa South 6.9 km/h 12.2 km/h 61% 0.0 mm CLR
03:59 10.6 °C 3.4 °C 1028.4 hPa SSW 7.6 km/h 9.3 km/h 61% 0.0 mm CLR
04:04 10.5 °C 3.3 °C 1028.4 hPa SSW 7.6 km/h 9.3 km/h 61% 0.0 mm CLR
04:09 10.5 °C 3.3 °C 1028.4 hPa SW 7.6 km/h 10.0 km/h 61% 0.0 mm CLR
04:14 10.5 °C 3.3 °C 1028.4 hPa SW 7.6 km/h 11.1 km/h 61% 0.0 mm CLR
04:19 10.5 °C 3.3 °C 1028.3 hPa SW 6.9 km/h 9.3 km/h 61% 0.0 mm CLR
04:24 10.6 °C 3.4 °C 1028.3 hPa SSW 6.9 km/h 11.1 km/h 61% 0.0 mm CLR
04:29 10.6 °C 3.4 °C 1028.3 hPa SW 6.9 km/h 5.6 km/h 61% 0.0 mm CLR
04:34 10.6 °C 3.4 °C 1028.1 hPa SW 6.9 km/h 7.4 km/h 61% 0.0 mm CLR
04:39 10.6 °C 3.4 °C 1028.1 hPa WSW 4.7 km/h 7.4 km/h 61% 0.0 mm CLR
04:44 10.5 °C 3.3 °C 1028.1 hPa WSW 4.7 km/h 7.4 km/h 61% 0.0 mm CLR
04:49 10.4 °C 3.2 °C 1028.1 hPa WSW 4.7 km/h 8.4 km/h 61% 0.0 mm CLR
04:54 10.4 °C 3.2 °C 1028.1 hPa WSW 4.7 km/h 11.1 km/h 61% 0.0 mm CLR
04:59 10.4 °C 3.2 °C 1028.1 hPa WSW 6.4 km/h 9.3 km/h 61% 0.0 mm CLR
05:04 10.4 °C 3.2 °C 1028.1 hPa WSW 6.4 km/h 13.0 km/h 61% 0.0 mm CLR
05:09 10.4 °C 3.2 °C 1028.1 hPa WSW 7.6 km/h 7.4 km/h 61% 0.0 mm CLR
05:14 10.4 °C 3.2 °C 1028.1 hPa WSW 7.6 km/h 7.4 km/h 61% 0.0 mm CLR
05:19 10.4 °C 3.2 °C 1028.2 hPa WSW 3.9 km/h 7.4 km/h 61% 0.0 mm CLR
05:24 10.4 °C 3.2 °C 1028.2 hPa South 3.9 km/h 5.6 km/h 61% 0.0 mm CLR
05:29 10.3 °C 3.6 °C 1028.2 hPa South 3.2 km/h 3.2 km/h 63% 0.0 mm CLR
05:34 10.2 °C 3.4 °C 1028.1 hPa South 3.2 km/h 4.7 km/h 63% 0.0 mm CLR
05:39 10.2 °C 3.7 °C 1028.1 hPa South 2.9 km/h 5.6 km/h 64% 0.0 mm CLR
05:44 10.1 °C 3.6 °C 1028.1 hPa South 2.9 km/h 7.4 km/h 64% 0.0 mm CLR
05:49 9.9 °C 3.4 °C 1028.1 hPa SSE 4.7 km/h 7.4 km/h 64% 0.0 mm CLR
05:54 9.8 °C 3.5 °C 1028.1 hPa SSE 4.7 km/h 5.8 km/h 65% 0.0 mm CLR
05:59 9.7 °C 3.4 °C 1028.1 hPa South 4.7 km/h 7.4 km/h 65% 0.0 mm CLR
06:04 9.7 °C 3.7 °C 1028.0 hPa South 4.7 km/h 7.4 km/h 66% 0.0 mm CLR
06:09 9.6 °C 3.6 °C 1028.0 hPa South 3.9 km/h 5.0 km/h 66% 0.0 mm CLR
06:14 9.6 °C 3.6 °C 1028.0 hPa South 3.9 km/h 5.6 km/h 66% 0.0 mm CLR
06:19 9.6 °C 3.8 °C 1028.0 hPa South 3.9 km/h 7.4 km/h 67% 0.0 mm CLR
06:24 9.4 °C 3.6 °C 1028.0 hPa SSE 3.9 km/h 7.4 km/h 67% 0.0 mm CLR
06:29 9.3 °C 3.7 °C 1028.0 hPa SSE 5.8 km/h 9.3 km/h 68% 0.0 mm CLR
06:34 9.1 °C 3.7 °C 1028.0 hPa SSE 5.8 km/h 11.1 km/h 69% 0.0 mm CLR
06:39 8.9 °C 3.5 °C 1028.0 hPa SSE 7.6 km/h 11.1 km/h 69% 0.0 mm CLR
06:44 8.8 °C 3.6 °C 1028.0 hPa SE 7.6 km/h 8.7 km/h 70% 0.0 mm CLR
06:49 8.7 °C 3.6 °C 1028.1 hPa South 7.6 km/h 11.1 km/h 70% 0.0 mm CLR
06:54 8.8 °C 3.4 °C 1028.1 hPa South 7.6 km/h 11.1 km/h 69% 0.0 mm CLR
06:59 8.8 °C 3.4 °C 1028.1 hPa SSW 8.4 km/h 9.5 km/h 69% 0.0 mm CLR
07:04 8.9 °C 3.3 °C 1028.0 hPa SSW 8.4 km/h 9.5 km/h 68% 0.0 mm CLR
07:09 9.0 °C 3.2 °C 1028.0 hPa SW 7.6 km/h 9.3 km/h 67% 0.0 mm CLR
07:14 9.2 °C 3.4 °C 1028.0 hPa SW 7.6 km/h 8.4 km/h 67% 0.0 mm CLR
07:19 9.3 °C 3.3 °C 1027.9 hPa WSW 5.8 km/h 11.1 km/h 66% 0.0 mm CLR
07:24 9.3 °C 3.1 °C 1027.9 hPa SSW 5.8 km/h 7.4 km/h 65% 0.0 mm CLR
07:29 9.4 °C 3.2 °C 1027.9 hPa WSW 5.8 km/h 9.5 km/h 65% 0.0 mm CLR
07:34 9.4 °C 2.9 °C 1028.0 hPa SW 5.8 km/h 7.4 km/h 64% 0.0 mm CLR
07:39 9.4 °C 2.9 °C 1028.0 hPa SW 6.4 km/h 7.4 km/h 64% 0.0 mm CLR
07:44 9.5 °C 3.0 °C 1028.0 hPa SSW 6.4 km/h 9.3 km/h 64% 0.0 mm CLR
07:49 9.6 °C 2.9 °C 1027.9 hPa SW 5.0 km/h 11.1 km/h 63% 0.0 mm CLR
07:54 9.7 °C 3.0 °C 1027.9 hPa WSW 5.0 km/h 11.1 km/h 63% 0.0 mm CLR
07:59 9.8 °C 3.1 °C 1027.9 hPa SW 7.6 km/h 11.1 km/h 63% 0.0 mm CLR
08:04 10.0 °C 3.1 °C 1028.0 hPa WSW 7.6 km/h 11.1 km/h 62% 0.0 mm CLR
08:09 10.1 °C 3.2 °C 1028.0 hPa South 6.9 km/h 7.4 km/h 62% 0.0 mm CLR
08:14 10.2 °C 3.2 °C 1028.0 hPa SSW 6.9 km/h 7.4 km/h 62% 0.0 mm CLR
08:19 10.3 °C 3.3 °C 1028.0 hPa SSW 5.0 km/h 7.4 km/h 62% 0.0 mm CLR
08:24 10.4 °C 3.7 °C 1028.0 hPa South 5.0 km/h 8.4 km/h 63% 0.0 mm CLR
08:29 10.5 °C 3.5 °C 1028.0 hPa SW 5.0 km/h 8.4 km/h 62% 0.0 mm CLR
08:34 10.6 °C 3.6 °C 1028.2 hPa SW 5.0 km/h 11.1 km/h 62% 0.0 mm CLR
08:39 10.7 °C 3.7 °C 1028.2 hPa SW 6.9 km/h 10.0 km/h 62% 0.0 mm CLR
08:44 10.8 °C 3.8 °C 1028.2 hPa SW 6.9 km/h 7.4 km/h 62% 0.0 mm CLR
08:49 10.9 °C 3.4 °C 1028.4 hPa SW 6.9 km/h 13.0 km/h 60% 0.0 mm CLR
08:54 11.1 °C 3.6 °C 1028.4 hPa SW 6.9 km/h 9.3 km/h 60% 0.0 mm CLR
08:59 11.2 °C 3.5 °C 1028.4 hPa SW 7.6 km/h 8.4 km/h 59% 0.0 mm CLR
09:04 11.3 °C 3.6 °C 1028.4 hPa WSW 7.6 km/h 7.4 km/h 59% 0.0 mm CLR
09:09 11.6 °C 3.6 °C 1028.4 hPa SW 6.4 km/h 9.3 km/h 58% 0.0 mm CLR
09:14 11.9 °C 3.7 °C 1028.4 hPa SSW 6.4 km/h 7.6 km/h 57% 0.0 mm CLR
09:19 12.2 °C 3.4 °C 1028.4 hPa SSW 5.8 km/h 11.1 km/h 55% 0.0 mm CLR
09:24 12.4 °C 3.6 °C 1028.4 hPa SW 5.8 km/h 9.3 km/h 55% 0.0 mm CLR
09:29 12.8 °C 3.4 °C 1028.4 hPa SW 6.9 km/h 7.4 km/h 53% 0.0 mm CLR
09:34 13.1 °C 3.4 °C 1028.4 hPa WSW 6.9 km/h 7.4 km/h 52% 0.0 mm CLR
09:39 13.5 °C 3.3 °C 1028.4 hPa WSW 4.7 km/h 9.3 km/h 50% 0.0 mm CLR
09:44 13.7 °C 3.4 °C 1028.4 hPa WSW 4.7 km/h 7.4 km/h 50% 0.0 mm CLR
09:49 13.8 °C 3.6 °C 1028.4 hPa West 5.8 km/h 7.4 km/h 50% 0.0 mm CLR
09:54 14.1 °C 3.6 °C 1028.4 hPa SW 5.8 km/h 7.4 km/h 49% 0.0 mm CLR
09:59 14.3 °C 3.7 °C 1028.4 hPa WSW 5.0 km/h 7.4 km/h 49% 0.0 mm CLR
10:04 14.5 °C 3.6 °C 1028.5 hPa WNW 5.0 km/h 7.4 km/h 48% 0.0 mm CLR
10:09 14.8 °C 3.6 °C 1028.5 hPa SW 4.7 km/h 9.3 km/h 47% 0.0 mm CLR
10:14 15.1 °C 3.8 °C 1028.5 hPa SW 4.7 km/h 7.6 km/h 47% 0.0 mm CLR
10:19 15.2 °C 3.9 °C 1028.3 hPa SW 5.0 km/h 7.4 km/h 47% 0.0 mm CLR
10:24 15.7 °C 4.1 °C 1028.3 hPa SE 5.0 km/h 5.6 km/h 46% 0.0 mm CLR
10:29 16.2 °C 4.2 °C 1028.3 hPa SSW 3.9 km/h 7.4 km/h 45% 0.0 mm CLR
10:34 16.6 °C 4.3 °C 1028.3 hPa SSW 3.9 km/h 7.4 km/h 44% 0.0 mm CLR
10:39 16.8 °C 4.4 °C 1028.3 hPa SSW 5.0 km/h 9.5 km/h 44% 0.0 mm CLR
10:44 17.1 °C 4.4 °C 1028.3 hPa West 5.0 km/h 11.1 km/h 43% 0.0 mm CLR
10:49 17.2 °C 4.2 °C 1027.9 hPa SW 6.9 km/h 11.1 km/h 42% 0.0 mm CLR
10:54 17.6 °C 4.5 °C 1027.9 hPa SW 6.9 km/h 11.1 km/h 42% 0.0 mm CLR
10:59 17.9 °C 4.4 °C 1027.9 hPa SW 8.4 km/h 10.3 km/h 41% 0.0 mm CLR
11:04 18.3 °C 4.4 °C 1027.8 hPa SSW 8.4 km/h 13.0 km/h 40% 0.0 mm CLR
11:09 18.6 °C 4.4 °C 1027.8 hPa South 8.4 km/h 13.0 km/h 39% 0.0 mm CLR
11:14 18.9 °C 4.6 °C 1027.8 hPa SSW 8.4 km/h 14.8 km/h 39% 0.0 mm CLR
11:19 19.2 °C 4.5 °C 1027.6 hPa SW 8.4 km/h 11.1 km/h 38% 0.0 mm CLR
11:24 19.4 °C 4.3 °C 1027.6 hPa SSE 8.4 km/h 11.1 km/h 37% 0.0 mm CLR
11:29 19.8 °C 4.7 °C 1027.6 hPa South 6.4 km/h 12.2 km/h 37% 0.0 mm CLR
11:34 20.2 °C 4.7 °C 1027.4 hPa SSW 6.4 km/h 9.3 km/h 36% 0.0 mm CLR
11:39 20.3 °C 4.7 °C 1027.4 hPa SW 7.6 km/h 11.1 km/h 36% 0.0 mm CLR
11:44 20.5 °C 4.9 °C 1027.4 hPa SSW 7.6 km/h 7.4 km/h 36% 0.0 mm CLR
11:49 20.8 °C 4.8 °C 1027.2 hPa SSW 6.9 km/h 9.5 km/h 35% 0.0 mm CLR
11:54 21.1 °C 4.6 °C 1027.2 hPa SSW 6.9 km/h 13.0 km/h 34% 0.0 mm CLR
12:00 21.2 °C 4.7 °C 1027.2 hPa South 8.0 km/h 11.3 km/h 34% 0.0 mm CLR
12:05 21.5 °C 4.9 °C 1026.9 hPa SW 7.6 km/h 13.0 km/h 34% 0.0 mm CLR
12:09 21.6 °C 5.1 °C 1026.9 hPa West 7.6 km/h 13.0 km/h 34% 0.0 mm CLR
12:14 21.6 °C 5.1 °C 1026.9 hPa NW 7.6 km/h 9.3 km/h 34% 0.0 mm CLR
12:19 21.9 °C 5.3 °C 1026.7 hPa SW 5.8 km/h 13.0 km/h 34% 0.0 mm CLR
12:24 22.2 °C 5.6 °C 1026.7 hPa WSW 5.8 km/h 9.3 km/h 34% 0.0 mm CLR
12:29 22.5 °C 5.4 °C 1026.7 hPa West 5.0 km/h 13.0 km/h 33% 0.0 mm CLR
12:34 22.5 °C 5.4 °C 1026.4 hPa WSW 5.0 km/h 13.0 km/h 33% 0.0 mm CLR
12:39 22.7 °C 5.6 °C 1026.4 hPa WNW 6.4 km/h 11.1 km/h 33% 0.0 mm CLR
12:44 22.9 °C 5.8 °C 1026.4 hPa South 6.4 km/h 7.6 km/h 33% 0.0 mm CLR
12:49 23.2 °C 5.6 °C 1026.2 hPa SE 6.9 km/h 9.3 km/h 32% 0.0 mm CLR
12:54 23.3 °C 5.7 °C 1026.2 hPa NW 6.9 km/h 5.8 km/h 32% 0.0 mm CLR
12:59 23.4 °C 5.8 °C 1026.2 hPa West 5.8 km/h 11.1 km/h 32% 0.0 mm CLR
13:04 23.3 °C 5.7 °C 1025.9 hPa WNW 5.8 km/h 7.4 km/h 32% 0.0 mm CLR
13:10 23.4 °C 5.7 °C 1025.9 hPa SW 8.0 km/h 16.1 km/h 32% 0.0 mm CLR
13:14 23.5 °C 5.8 °C 1025.9 hPa SW 7.6 km/h 7.4 km/h 32% 0.0 mm CLR
13:19 23.8 °C 6.1 °C 1025.6 hPa South 5.8 km/h 14.8 km/h 32% 0.0 mm CLR
13:24 24.1 °C 5.9 °C 1025.6 hPa SE 5.8 km/h 9.3 km/h 31% 0.0 mm CLR
13:29 24.2 °C 6.0 °C 1025.6 hPa SW 7.6 km/h 11.1 km/h 31% 0.0 mm CLR
13:34 24.2 °C 6.0 °C 1025.3 hPa WSW 7.6 km/h 13.0 km/h 31% 0.0 mm CLR
13:39 24.3 °C 6.1 °C 1025.3 hPa SW 7.6 km/h 11.1 km/h 31% 0.0 mm CLR
13:44 24.4 °C 6.2 °C 1025.3 hPa WSW 7.6 km/h 9.3 km/h 31% 0.0 mm CLR
13:49 24.6 °C 5.9 °C 1024.9 hPa West 8.4 km/h 14.8 km/h 30% 0.0 mm CLR
13:54 24.7 °C 5.9 °C 1024.9 hPa NW 8.4 km/h 13.0 km/h 30% 0.0 mm CLR
13:59 24.8 °C 6.1 °C 1024.9 hPa WNW 8.7 km/h 13.0 km/h 30% 0.0 mm CLR
14:04 24.8 °C 6.1 °C 1024.6 hPa NW 8.7 km/h 8.4 km/h 30% 0.0 mm CLR
14:09 25.1 °C 6.8 °C 1024.6 hPa ENE 5.0 km/h 9.3 km/h 31% 0.0 mm CLR
14:15 25.2 °C 6.4 °C 1024.6 hPa NW 4.8 km/h 16.1 km/h 30% 0.0 mm CLR
14:19 25.1 °C 6.3 °C 1024.3 hPa SW 6.4 km/h 11.1 km/h 30% 0.0 mm CLR
14:24 25.2 °C 6.4 °C 1024.3 hPa West 6.4 km/h 11.9 km/h 30% 0.0 mm CLR
14:29 25.3 °C 6.0 °C 1024.3 hPa WNW 6.9 km/h 7.4 km/h 29% 0.0 mm CLR
14:34 25.4 °C 6.1 °C 1024.1 hPa SW 6.9 km/h 9.3 km/h 29% 0.0 mm CLR
14:39 25.7 °C 6.3 °C 1024.1 hPa South 5.8 km/h 11.1 km/h 29% 0.0 mm CLR
14:45 25.8 °C 6.4 °C 1024.1 hPa WSW 4.8 km/h 17.7 km/h 29% 0.0 mm CLR
14:49 25.7 °C 6.3 °C 1023.7 hPa SW 8.4 km/h 16.7 km/h 29% 0.0 mm CLR
14:54 25.7 °C 5.8 °C 1023.7 hPa WSW 8.4 km/h 5.6 km/h 28% 0.0 mm CLR
14:59 25.9 °C 6.0 °C 1023.7 hPa SSW 6.4 km/h 15.6 km/h 28% 0.0 mm CLR
15:05 25.9 °C 6.0 °C 1023.6 hPa SSW 8.0 km/h 19.3 km/h 28% 0.0 mm CLR
15:09 25.8 °C 5.9 °C 1023.6 hPa ENE 10.3 km/h 10.0 km/h 28% 0.0 mm CLR
15:14 25.9 °C 6.0 °C 1023.6 hPa SE 10.3 km/h 13.0 km/h 28% 0.0 mm CLR
15:19 25.9 °C 6.0 °C 1023.4 hPa SE 8.7 km/h 14.8 km/h 28% 0.0 mm CLR
15:24 26.0 °C 6.1 °C 1023.4 hPa SSW 8.7 km/h 14.0 km/h 28% 0.0 mm CLR
15:30 25.9 °C 6.0 °C 1023.4 hPa South 10.3 km/h 14.8 km/h 28% 0.0 mm CLR
15:34 26.0 °C 6.1 °C 1023.1 hPa ESE 10.3 km/h 11.1 km/h 28% 0.0 mm CLR
15:39 26.2 °C 6.2 °C 1023.1 hPa SSW 7.6 km/h 9.3 km/h 28% 0.0 mm CLR
15:44 26.4 °C 5.9 °C 1023.1 hPa SSW 7.6 km/h 13.7 km/h 27% 0.0 mm CLR
15:50 26.4 °C 5.9 °C 1022.9 hPa SE 7.6 km/h 9.3 km/h 27% 0.0 mm CLR
15:54 26.2 °C 5.7 °C 1022.9 hPa ESE 7.6 km/h 13.0 km/h 27% 0.0 mm CLR
15:59 26.3 °C 6.3 °C 1022.9 hPa SSE 8.7 km/h 11.1 km/h 28% 0.0 mm CLR
16:05 26.5 °C 6.0 °C 1022.9 hPa SSE 8.7 km/h 3.7 km/h 27% 0.0 mm CLR
16:09 26.8 °C 6.2 °C 1022.9 hPa WSW 6.4 km/h 14.0 km/h 27% 0.0 mm CLR
16:14 26.7 °C 6.2 °C 1022.9 hPa SSW 6.4 km/h 14.8 km/h 27% 0.0 mm CLR
16:19 26.7 °C 6.2 °C 1022.7 hPa WSW 9.5 km/h 13.0 km/h 27% 0.0 mm CLR
16:25 26.6 °C 6.1 °C 1022.7 hPa SSW 9.7 km/h 12.9 km/h 27% 0.0 mm CLR
16:29 26.5 °C 7.0 °C 1022.7 hPa South 8.7 km/h 18.5 km/h 29% 0.0 mm CLR
16:34 26.3 °C 7.3 °C 1022.5 hPa ESE 8.7 km/h 18.3 km/h 30% 0.0 mm CLR
16:40 26.2 °C 7.2 °C 1022.5 hPa East 11.1 km/h 20.4 km/h 30% 0.0 mm CLR
16:45 26.0 °C 7.1 °C 1022.5 hPa SE 11.1 km/h 24.1 km/h 30% 0.0 mm CLR
16:49 25.8 °C 6.9 °C 1022.4 hPa ESE 14.0 km/h 24.1 km/h 30% 0.0 mm CLR
16:55 25.7 °C 7.3 °C 1022.4 hPa SE 14.5 km/h 25.7 km/h 31% 0.0 mm CLR
16:59 25.7 °C 7.3 °C 1022.4 hPa SSE 14.8 km/h 22.2 km/h 31% 0.0 mm CLR
17:04 25.5 °C 7.1 °C 1022.4 hPa East 14.8 km/h 18.5 km/h 31% 0.0 mm CLR
17:09 25.4 °C 7.1 °C 1022.4 hPa SE 14.8 km/h 16.7 km/h 31% 0.0 mm CLR
17:15 25.4 °C 7.1 °C 1022.4 hPa SSE 14.5 km/h 22.5 km/h 31% 0.0 mm CLR
17:20 25.7 °C 7.3 °C 1022.3 hPa ESE 12.2 km/h 13.0 km/h 31% 0.0 mm CLR
17:24 25.7 °C 6.8 °C 1022.3 hPa ESE 12.2 km/h 18.5 km/h 30% 0.0 mm CLR
17:29 25.6 °C 7.2 °C 1022.3 hPa South 11.1 km/h 14.8 km/h 31% 0.0 mm CLR
17:35 25.4 °C 7.1 °C 1022.4 hPa SE 11.1 km/h 18.5 km/h 31% 0.0 mm CLR
17:40 25.2 °C 7.3 °C 1022.4 hPa SSE 11.1 km/h 14.8 km/h 32% 0.0 mm CLR
17:45 24.9 °C 7.1 °C 1022.4 hPa ESE 11.3 km/h 20.9 km/h 32% 0.0 mm CLR
17:50 24.7 °C 6.9 °C 1022.4 hPa ESE 11.9 km/h 16.7 km/h 32% 0.0 mm CLR
17:55 24.6 °C 6.8 °C 1022.4 hPa ESE 11.3 km/h 19.3 km/h 32% 0.0 mm CLR
17:59 24.5 °C 6.7 °C 1022.4 hPa East 10.3 km/h 16.7 km/h 32% 0.0 mm CLR
18:05 24.4 °C 6.6 °C 1022.5 hPa ESE 11.3 km/h 16.1 km/h 32% 0.0 mm CLR
18:09 24.3 °C 7.0 °C 1022.5 hPa SE 10.3 km/h 18.5 km/h 33% 0.0 mm CLR
18:15 24.1 °C 6.8 °C 1022.5 hPa ESE 11.3 km/h 20.9 km/h 33% 0.0 mm CLR
18:20 24.0 °C 6.7 °C 1022.6 hPa ESE 11.3 km/h 19.3 km/h 33% 0.0 mm CLR
18:25 24.0 °C 6.7 °C 1022.6 hPa South 11.9 km/h 7.4 km/h 33% 0.0 mm CLR
18:29 24.1 °C 6.8 °C 1022.6 hPa South 6.4 km/h 5.6 km/h 33% 0.0 mm CLR
18:34 24.2 °C 6.9 °C 1022.8 hPa South 6.4 km/h 7.4 km/h 33% 0.0 mm CLR
18:40 24.2 °C 6.9 °C 1022.8 hPa South 3.2 km/h 8.0 km/h 33% 0.0 mm CLR
18:45 24.2 °C 6.9 °C 1022.8 hPa South 3.2 km/h 3.2 km/h 33% 0.0 mm CLR
18:49 24.2 °C 6.9 °C 1022.8 hPa WSW 2.3 km/h 5.6 km/h 33% 0.0 mm CLR
18:55 24.0 °C 6.7 °C 1022.8 hPa SW 1.6 km/h 8.0 km/h 33% 0.0 mm CLR
18:59 23.7 °C 6.9 °C 1022.8 hPa NNE 4.7 km/h 5.6 km/h 34% 0.0 mm CLR
19:04 23.4 °C 7.1 °C 1023.0 hPa NNE 4.7 km/h 5.0 km/h 35% 0.0 mm CLR
19:09 23.2 °C 6.9 °C 1023.0 hPa NNW 3.2 km/h 7.6 km/h 35% 0.0 mm CLR
19:15 22.9 °C 7.1 °C 1023.0 hPa NNW 3.2 km/h 7.4 km/h 36% 0.0 mm CLR
19:19 22.6 °C 6.8 °C 1023.2 hPa North 5.0 km/h 7.4 km/h 36% 0.0 mm CLR
19:25 22.3 °C 6.6 °C 1023.2 hPa North 4.8 km/h 8.0 km/h 36% 0.0 mm CLR
19:30 22.2 °C 6.8 °C 1023.2 hPa NE 4.7 km/h 5.6 km/h 37% 0.0 mm CLR
19:35 22.1 °C 6.7 °C 1023.5 hPa NW 4.7 km/h 7.4 km/h 37% 0.0 mm CLR
19:39 21.9 °C 6.6 °C 1023.5 hPa NW 3.9 km/h 5.6 km/h 37% 0.0 mm CLR
19:45 21.8 °C 6.9 °C 1023.5 hPa NW 3.2 km/h 6.4 km/h 38% 0.0 mm CLR
19:50 21.7 °C 6.8 °C 1023.6 hPa NW 3.9 km/h 5.6 km/h 38% 0.0 mm CLR
19:55 21.5 °C 6.9 °C 1023.6 hPa NW 3.9 km/h 5.6 km/h 39% 0.0 mm CLR
19:59 21.3 °C 7.2 °C 1023.6 hPa NW 2.9 km/h 7.4 km/h 40% 0.0 mm CLR
20:05 21.1 °C 7.3 °C 1023.6 hPa NW 3.2 km/h 8.0 km/h 41% 0.0 mm CLR
20:09 20.9 °C 7.2 °C 1023.6 hPa NW 2.9 km/h 5.6 km/h 41% 0.0 mm CLR
20:15 20.7 °C 7.7 °C 1023.6 hPa NW 3.2 km/h 9.7 km/h 43% 0.0 mm CLR
20:19 20.4 °C 7.7 °C 1023.7 hPa NNE 3.9 km/h 7.4 km/h 44% 0.0 mm CLR
20:25 20.0 °C 7.3 °C 1023.7 hPa North 3.2 km/h 12.9 km/h 44% 0.0 mm CLR
20:30 19.6 °C 8.0 °C 1023.7 hPa East 7.6 km/h 14.8 km/h 47% 0.0 mm CLR
20:35 19.3 °C 8.0 °C 1023.8 hPa NNE 7.6 km/h 13.0 km/h 48% 0.0 mm CLR
20:40 18.9 °C 8.3 °C 1023.8 hPa NNE 9.7 km/h 19.3 km/h 50% 0.0 mm CLR
20:45 18.6 °C 8.6 °C 1023.8 hPa NNE 9.5 km/h 11.1 km/h 52% 0.0 mm CLR
20:50 18.3 °C 8.9 °C 1023.9 hPa NNE 9.7 km/h 11.3 km/h 54% 0.0 mm CLR
20:54 18.2 °C 9.0 °C 1023.9 hPa North 9.5 km/h 7.4 km/h 55% 0.0 mm CLR
21:00 18.0 °C 9.1 °C 1023.9 hPa North 4.8 km/h 9.7 km/h 56% 0.0 mm CLR
21:05 17.8 °C 9.4 °C 1024.2 hPa North 4.8 km/h 9.7 km/h 58% 0.0 mm CLR
21:10 17.6 °C 9.5 °C 1024.2 hPa NNE 4.8 km/h 11.3 km/h 59% 0.0 mm CLR
21:15 17.4 °C 9.6 °C 1024.2 hPa NNE 4.8 km/h 12.9 km/h 60% 0.0 mm CLR
21:20 17.4 °C 9.6 °C 1024.3 hPa North 8.0 km/h 9.7 km/h 60% 0.0 mm CLR
21:25 17.3 °C 9.4 °C 1024.3 hPa NNW 8.0 km/h 12.9 km/h 60% 0.0 mm CLR
21:30 17.2 °C 9.4 °C 1024.3 hPa NW 4.7 km/h 5.6 km/h 60% 0.0 mm CLR
21:35 17.2 °C 9.6 °C 1024.5 hPa NW 3.2 km/h 9.7 km/h 61% 0.0 mm CLR
21:39 17.1 °C 9.8 °C 1024.5 hPa NNE 3.9 km/h 7.6 km/h 62% 0.0 mm CLR
21:45 16.9 °C 9.6 °C 1024.5 hPa NNE 3.2 km/h 8.0 km/h 62% 0.0 mm CLR
21:49 16.9 °C 9.8 °C 1024.5 hPa NW 3.9 km/h 5.6 km/h 63% 0.0 mm CLR
21:55 16.8 °C 9.7 °C 1024.5 hPa NW 3.2 km/h 8.0 km/h 63% 0.0 mm CLR
22:00 16.7 °C 9.6 °C 1024.5 hPa NW 3.2 km/h 8.0 km/h 63% 0.0 mm CLR
22:05 16.6 °C 9.8 °C 1024.7 hPa NW 3.2 km/h 8.0 km/h 64% 0.0 mm CLR
22:10 16.5 °C 9.9 °C 1024.7 hPa NW 3.2 km/h 8.0 km/h 65% 0.0 mm CLR
22:15 16.4 °C 9.8 °C 1024.7 hPa NW 3.2 km/h   65% 0.0 mm CLR
22:19 16.4 °C 10.1 °C 1024.8 hPa NW 2.3 km/h 3.7 km/h 66% 0.0 mm CLR
22:25 16.3 °C 9.9 °C 1024.8 hPa NW 1.6 km/h 6.4 km/h 66% 0.0 mm CLR
22:30 16.3 °C 9.9 °C 1024.8 hPa NW 2.9 km/h   66% 0.0 mm CLR
22:35 16.3 °C 10.2 °C 1024.9 hPa NW 3.2 km/h 3.2 km/h 67% 0.0 mm CLR
22:39 16.2 °C 10.1 °C 1024.9 hPa Calm   3.7 km/h 67% 0.0 mm CLR
22:45 16.1 °C 10.0 °C 1024.9 hPa Calm   3.2 km/h 67% 0.0 mm CLR
22:50 16.1 °C 9.9 °C 1025.0 hPa Calm     67% 0.0 mm CLR
22:55 16.0 °C 9.9 °C 1025.0 hPa Calm     67% 0.0 mm CLR
22:59 15.9 °C 10.0 °C 1025.0 hPa Calm   3.7 km/h 68% 0.0 mm CLR
23:05 15.9 °C 10.0 °C 1025.0 hPa Calm     68% 0.0 mm CLR
23:10 15.9 °C 10.0 °C 1025.0 hPa Calm     68% 0.0 mm CLR
23:15 15.8 °C 9.9 °C 1025.0 hPa Calm     68% 0.0 mm CLR
23:20 15.8 °C 10.1 °C 1025.0 hPa Calm   4.8 km/h 69% 0.0 mm CLR
23:25 15.7 °C 10.3 °C 1025.0 hPa Calm   8.0 km/h 70% 0.0 mm CLR
23:30 15.7 °C 10.2 °C 1025.0 hPa NW 2.9 km/h   70% 0.0 mm CLR
23:35 15.6 °C 10.2 °C 1025.2 hPa NW 3.2 km/h   70% 0.0 mm CLR
23:39 15.5 °C 10.3 °C 1025.2 hPa Calm     71% 0.0 mm CLR
23:45 15.4 °C 10.2 °C 1025.2 hPa Calm   1.6 km/h 71% 0.0 mm CLR
23:50 15.3 °C 10.3 °C 1025.1 hPa Calm   1.6 km/h 72% 0.0 mm CLR
23:55 15.2 °C 10.2 °C 1025.1 hPa Calm   3.9 km/h 72% 0.0 mm CLR
Murcia-Puente Tocinos, España
Compliments of Weather Underground - 2.75 mb

La estación de MeteoMurcia.com, publica sus datos en los siguientes proyectos:

Weather Underground PWS IMURCIAP2 Meteoclimatic www.awekas.at

W3Counter
Web Analytics